sat.trackr.live / text

‹ back to catalog

KUIPER-00059

NORAD 64519 · 2025-134V

PAYLOAD ACTIVE UNKNOWN

§ Identity

Operator
Country
US
Launch date
2025-06-23
Launch site
AFETR
Launch vehicle
Mass (kg)
RCS (m²)

External: N2YO · Heavens-Above · Gunter

§ Orbital elements

Epoch: 2026-09-21T21:15:04.525920Z

Period
97.30 min
Inclination
51.9012°
Eccentricity
0.0000495
Mean motion
14.79927867 rev/d
Perigee alt
629.2 km
Apogee alt
629.9 km
Semi-major
7,007.7 km
B*
2.4650e-4
RAAN
73.0053°
Arg perigee
117.6053°
Mean anomaly
242.4960°
Rev number
6,930

§ Raw data

KUIPER-000591 64519U 25134V   26264.88546905  .00001658  00000+0  24650-3 0  99942 64519  51.9012  73.0053 0000495 117.6053 242.4960 14.79927867 69309

JSON: /api/v1/satellites/64519 · /tle

For live sub-satellite position, see the globe view (requires WebGL).

§ Visibility from observer

Set your observer location to see the next 7 days of passes ≥ 10°. The values pass through the URL so the page stays shareable.

No JS? Fill the form by hand. The geolocation button needs JavaScript.